Theta_e
347 351 352 355 363 363 342 345 345 346 344 349 348 349 348 347 345 351 352 349 346 333 339 341 340 339 336 336 340 341 341 339 338 338 337 334 331 333 334 334 336 335 336 337 337 340 340 325 325
347 355 354 358 365 341 342 343 346 345 344 345 347 348 348 352 351 352 351 349 347 333 335 337 336 334 334 335 338 338 338 338 337 336 336 335 333 335 332 339 333 337 337 337 341 333 328 330 328
350 353 358 360 357 341 342 342 341 342 346 345 345 345 347 348 350 353 351 350 348 335 332 332 332 332 333 334 335 336 336 336 337 336 336 340 339 333 336 333 334 335 337 336 340 330 326 336 331
358 358 360 361 339 339 337 337 341 342 345 345 345 348 350 350 349 351 351 349 348 343 338 334 332 332 332 333 334 335 336 337 337 337 341 341 341 342 338 338 337 334 336 335 332 327 324 325 328
348 344 360 360 340 340 337 340 341 341 346 347 347 350 350 349 348 351 351 350 349 349 342 337 335 333 333 333 333 334 336 338 337 337 337 338 339 340 340 340 339 336 337 339 331 326 327 328 326
349 347 361 354 341 340 338 340 341 342 344 346 348 350 349 349 347 349 349 347 349 350 348 339 338 335 334 333 333 333 334 338 338 337 337 337 338 338 339 340 340 339 333 340 333 335 329 333 325
357 359 356 345 343 341 339 337 337 340 343 347 349 349 348 348 347 348 347 348 348 350 340 340 339 338 337 336 334 334 335 338 339 338 337 337 337 338 338 338 340 339 338 336 334 333 336 333 328
355 345 348 343 344 343 341 338 341 341 342 345 347 348 348 348 347 347 348 353 354 352 346 345 338 338 339 339 337 335 336 339 340 340 340 339 338 337 337 339 339 339 339 339 330 340 331 327 327
348 347 349 346 345 343 343 343 341 342 343 343 344 347 346 348 348 347 349 353 354 353 352 350 339 336 338 339 339 338 338 339 339 339 338 338 338 339 343 343 342 344 338 339 339 331 338 331 331
346 339 342 341 341 341 344 344 340 340 341 345 347 348 349 348 348 348 349 349 354 354 353 350 349 337 340 341 339 337 337 337 336 340 344 344 342 345 346 347 344 344 340 337 338 339 336 330 334
342 340 339 338 337 341 344 346 344 342 344 343 348 348 347 348 348 349 350 348 349 347 352 350 350 346 338 342 345 345 337 336 344 345 346 340 340 346 348 346 346 346 343 337 336 337 338 337 331
336 335 336 336 336 336 341 346 346 344 344 344 346 347 347 348 350 351 351 350 349 348 350 350 350 349 346 350 351 347 340 336 344 347 343 339 340 342 344 347 345 345 345 340 342 344 343 344 340
331 332 334 336 335 336 337 337 339 343 345 345 346 346 348 349 350 351 350 350 349 350 349 350 349 350 347 351 348 348 348 345 341 346 342 337 340 341 342 344 346 346 347 345 343 346 346 345 345
331 332 333 334 335 335 336 336 337 342 346 346 347 346 348 349 350 351 350 349 349 350 349 350 350 350 349 350 351 349 350 351 349 349 340 337 339 339 342 343 344 347 346 347 345 346 347 346 347
330 329 331 332 334 334 336 340 339 340 345 347 347 346 346 348 349 350 349 349 348 350 350 351 351 351 348 346 351 350 348 348 349 348 346 342 342 341 339 340 343 344 346 346 343 343 346 346 344
326 327 329 331 332 334 338 338 340 339 340 346 347 347 346 347 348 348 349 349 349 349 351 352 353 353 344 344 345 346 347 347 345 345 345 344 344 344 343 341 340 343 344 344 342 340 341 346 345
326 326 328 330 332 341 340 340 340 341 340 345 346 347 347 347 347 347 348 349 350 350 351 352 352 352 346 347 347 347 347 341 342 345 345 348 345 346 346 344 340 341 344 344 341 339 342 341 344
325 327 327 330 333 339 339 338 339 340 340 343 343 346 347 348 347 348 347 348 350 350 351 352 352 352 353 353 353 350 346 337 344 345 348 349 348 347 344 344 341 344 344 343 340 341 343 343 343
327 326 327 328 330 331 335 336 333 338 339 338 343 347 347 347 348 348 348 348 350 352 352 352 353 354 356 356 354 352 348 342 342 348 349 348 347 344 344 343 341 343 343 345 340 341 342 343 344
326 326 327 328 330 330 329 329 329 329 332 333 341 348 347 347 348 348 348 349 350 352 353 353 353 354 357 358 356 347 349 346 343 347 349 350 348 343 343 342 342 342 342 343 342 338 341 343 345
324 324 326 328 328 326 327 328 329 329 333 334 335 347 349 348 348 348 348 349 350 352 353 352 353 355 356 357 352 354 352 346 344 347 350 348 345 341 342 342 342 341 343 343 340 338 339 338 341
322 325 326 328 326 324 328 324 326 331 332 333 336 340 349 350 349 348 348 349 350 351 353 352 352 353 350 349 355 348 343 346 339 340 345 349 348 346 343 344 341 341 342 341 340 339 339 339 338
325 326 326 327 324 325 325 323 324 326 333 336 335 342 348 350 350 349 349 348 350 351 353 354 353 354 348 354 342 342 349 351 350 350 350 350 348 347 343 344 344 343 340 340 341 340 341 340 339
328 326 326 325 322 321 323 327 326 326 335 336 337 338 341 343 346 347 350 350 350 352 355 355 353 354 348 348 337 344 353 354 352 352 350 349 347 346 345 345 343 342 341 341 342 342 341 341 341
326 323 322 322 321 323 323 326 327 328 335 335 334 338 340 338 343 353 352 351 351 354 357 357 355 355 351 339 336 342 346 353 352 349 348 348 348 347 344 345 344 341 340 340 340 340 339 340 341
326 322 321 325 324 325 328 327 329 331 336 337 336 336 339 341 350 354 354 352 353 357 359 359 357 356 345 335 338 341 345 346 343 346 346 347 349 347 343 342 342 339 338 337 339 340 340 340 341
326 324 323 322 321 323 325 327 334 333 332 333 338 341 345 348 350 356 355 354 357 358 360 360 358 351 339 339 343 345 350 350 349 349 349 347 346 343 341 340 341 339 341 341 337 334 337 341 342
324 325 324 321 325 327 327 334 340 344 339 343 349 349 353 355 360 362 360 360 361 361 360 358 352 345 341 345 341 342 349 346 351 349 348 346 344 344 340 340 338 338 341 338 338 341 341 340 339
325 325 323 321 324 325 328 334 340 349 350 349 350 351 352 364 364 364 364 363 362 361 358 353 351 348 343 344 337 337 349 349 349 347 347 346 342 339 338 338 338 339 339 340 338 341 340 340 337
327 326 323 323 323 327 326 333 333 337 349 349 352 354 351 358 361 362 362 363 361 360 358 353 350 348 342 334 337 350 350 346 347 344 339 340 340 339 338 338 339 340 339 339 339 337 339 340 338
Wind_Speed
5 2 2 2 4 3 9 12 9 8 9 29 30 17 15 12 5 5 22 15 18 22 20 18 15 15 14 14 13 12 12 12 12 11 10 10 10 11 11 11 10 8 9 9 10 11 7 10 13
7 2 6 6 3 4 3 8 9 2 21 27 28 28 23 20 25 30 24 12 13 23 20 18 15 14 14 14 14 12 12 12 11 10 9 9 10 10 9 9 9 9 10 10 11 8 8 11 14
9 7 6 3 4 4 4 10 8 17 22 23 10 19 9 13 19 27 25 18 13 19 18 16 15 15 15 14 14 13 12 11 10 10 9 9 9 9 9 9 10 9 9 9 8 6 8 12 14
4 4 9 1 12 4 9 10 15 11 25 28 22 7 22 23 20 29 26 14 13 18 12 14 14 15 15 15 14 13 12 11 10 10 9 8 9 8 8 9 8 8 8 8 7 7 9 12 13
10 14 4 2 8 6 11 20 22 9 19 24 24 13 21 21 26 25 21 22 14 14 11 11 11 12 13 14 13 12 11 11 10 8 8 7 8 7 7 8 8 7 8 7 7 9 10 12 13
13 5 3 6 10 4 10 22 23 16 17 20 23 17 13 19 22 21 21 20 16 16 11 14 11 11 11 12 12 11 10 10 10 9 7 7 7 6 5 5 7 7 7 7 7 10 9 11 13
7 4 5 8 3 6 7 24 13 16 13 13 25 8 15 19 20 17 13 15 17 10 10 11 10 12 11 11 11 10 10 9 8 8 7 5 5 4 4 4 5 6 7 7 6 9 9 10 13
18 4 3 7 8 6 11 26 26 18 6 9 18 7 11 25 20 18 12 24 18 10 10 5 11 11 12 12 11 10 9 8 9 9 9 7 5 4 4 4 5 4 6 7 7 9 8 10 11
23 2 4 11 18 5 7 8 11 12 12 8 2 22 27 26 23 21 19 20 17 16 9 4 8 13 13 12 11 10 10 11 8 6 5 5 5 6 5 4 5 4 3 6 7 9 9 9 11
11 3 6 11 6 7 19 28 13 5 12 8 22 27 29 26 26 24 19 20 21 15 11 7 5 15 15 14 10 9 10 9 8 8 6 3 7 9 7 7 5 2 2 5 6 7 8 9 10
15 7 13 7 10 14 14 18 9 13 3 17 29 32 28 30 27 25 23 22 20 16 16 10 6 7 12 15 13 8 8 11 10 8 8 2 7 9 10 8 5 4 4 6 7 6 6 7 11
9 17 10 14 6 6 12 15 10 21 19 34 32 32 33 31 30 26 24 25 24 20 17 12 9 8 10 9 11 5 5 15 10 9 4 4 8 11 13 11 9 8 4 6 10 7 7 9 12
10 13 22 23 23 16 8 3 7 20 20 34 36 34 34 32 29 25 23 26 23 23 19 17 12 12 11 12 12 9 7 7 9 11 11 7 2 10 11 12 11 13 11 9 8 9 9 9 10
24 26 24 26 24 27 8 10 10 19 32 34 40 37 34 32 30 29 24 30 26 25 23 23 19 17 16 19 15 12 9 9 10 9 13 18 7 8 11 14 16 12 12 11 11 12 12 9 10
25 15 15 16 20 15 27 3 3 23 32 37 35 37 33 32 31 32 26 32 28 27 23 27 23 19 18 26 23 18 13 10 13 14 14 13 15 14 13 17 19 18 19 18 14 16 15 14 8
12 10 8 18 16 18 4 3 8 16 16 30 32 36 35 34 35 30 29 27 28 26 25 26 23 19 17 17 18 14 18 15 16 15 14 14 14 16 16 19 23 22 22 18 20 17 17 15 13
6 10 16 21 19 7 6 8 10 13 17 24 27 34 38 37 35 33 31 30 29 26 27 25 23 18 15 12 13 15 14 12 18 13 13 12 13 15 15 16 23 26 23 19 19 19 20 19 17
9 8 14 14 14 6 9 10 10 15 18 34 33 36 40 39 38 36 34 32 30 28 26 24 23 19 14 12 14 15 10 9 11 10 11 13 12 12 13 12 21 25 22 20 17 17 17 20 20
17 18 17 14 14 4 5 5 6 16 19 21 30 37 38 44 39 35 35 33 31 31 29 27 24 21 19 19 18 16 14 10 10 10 11 13 11 12 9 11 21 28 23 20 18 15 15 16 13
19 18 18 13 10 6 8 10 8 9 8 15 22 37 41 37 38 37 37 35 36 36 33 27 25 23 23 22 18 15 16 14 13 11 15 13 14 11 5 8 18 26 27 25 21 19 16 15 14
14 8 8 7 11 9 7 8 7 10 12 18 22 41 43 43 45 42 42 41 39 38 37 29 25 23 23 23 18 20 18 16 16 14 16 15 10 8 3 4 11 26 25 21 20 19 19 17 13
10 11 14 7 8 5 4 7 8 8 11 9 19 19 35 38 44 42 44 43 42 39 36 29 22 21 19 20 17 14 14 13 10 14 14 13 8 5 5 3 5 16 20 19 20 19 20 21 22
9 7 6 6 7 4 8 2 8 8 6 6 6 23 34 35 45 35 44 47 42 38 36 31 25 21 20 18 13 11 7 8 10 9 13 18 13 8 5 5 5 8 14 14 15 16 17 16 17
8 8 6 3 2 5 9 5 9 7 7 4 18 22 20 17 31 37 43 46 39 36 35 33 29 22 24 20 11 12 14 14 13 11 12 15 15 12 10 10 7 5 6 10 10 12 14 15 15
7 4 2 4 4 7 10 5 16 10 9 9 9 18 17 16 15 36 36 41 38 36 36 33 29 24 22 13 9 9 19 19 16 13 14 16 16 15 16 14 12 9 9 9 10 10 10 11 12
7 9 6 7 5 14 4 8 17 16 15 21 27 24 20 15 23 38 40 43 42 38 35 33 30 25 19 7 10 7 5 8 11 12 14 13 13 11 15 14 12 12 14 10 8 9 10 10 10
7 7 7 5 8 4 6 10 7 13 9 3 12 21 25 25 25 41 43 43 40 37 35 30 26 21 9 8 4 3 8 8 7 9 8 8 11 8 13 12 12 12 11 9 11 10 11 10 9
11 8 3 2 5 6 7 4 4 4 10 15 13 18 28 31 37 36 37 35 31 28 24 21 16 17 9 9 9 7 8 10 8 8 10 8 9 11 12 14 10 8 9 6 9 8 6 6 6
6 6 5 4 5 6 4 4 3 7 13 10 10 23 29 35 36 33 28 23 18 16 15 16 15 17 13 12 13 15 10 11 11 11 10 9 7 10 12 13 12 12 6 7 6 6 4 5 4
9 13 11 6 9 4 5 6 8 7 10 14 16 20 25 28 30 26 24 22 21 16 12 16 15 15 18 18 13 10 10 13 13 9 9 8 8 12 12 12 13 11 10 8 6 7 6 6 6
Wind_Direction
243 235 310 253 290 223 66 58 50 57 72 73 69 76 62 125 148 161 145 169 144 155 154 151 146 140 137 136 134 128 124 122 118 112 106 100 100 104 106 106 103 98 104 111 108 106 104 105 113
225 152 283 279 268 79 66 104 97 41 94 84 85 85 79 80 106 130 139 156 123 151 154 150 148 143 138 138 137 135 131 127 120 115 113 109 107 109 109 107 106 108 107 112 113 114 114 121 120
215 205 264 220 237 88 92 107 107 74 97 86 80 80 95 117 117 140 144 134 121 150 150 151 151 146 141 141 140 137 133 130 126 125 121 121 115 111 115 112 112 112 115 117 122 110 121 132 125
20 1 267 328 93 64 108 87 75 88 98 102 100 68 67 128 115 138 138 135 134 121 128 151 153 150 146 145 142 138 134 132 132 130 121 125 122 127 127 126 117 120 123 124 115 120 130 136 133
60 354 277 248 128 148 101 101 95 78 96 105 105 101 91 107 128 146 137 148 153 147 143 149 155 154 152 149 147 144 138 137 137 135 121 129 123 125 129 133 134 124 129 131 115 127 131 132 133
80 317 298 263 97 79 113 120 117 130 127 117 115 109 110 128 137 145 146 157 167 169 180 154 164 163 163 158 155 150 147 148 142 141 138 141 139 130 131 134 137 145 133 140 128 139 137 142 140
158 183 257 310 58 110 96 99 93 77 79 126 129 122 140 149 150 152 158 175 175 174 143 149 169 171 172 169 166 164 161 159 158 152 154 159 170 156 155 154 154 152 152 150 150 148 158 156 151
227 148 316 351 313 69 94 95 102 101 108 115 141 148 170 161 156 153 153 160 176 175 151 139 178 184 180 178 175 176 175 174 176 176 172 173 181 189 171 178 166 177 165 167 166 166 159 164 165
266 274 250 190 233 138 141 77 92 110 85 61 142 156 158 161 161 159 147 165 177 179 177 147 181 193 185 182 180 178 182 191 188 175 180 183 188 185 165 170 173 170 182 186 176 177 175 168 177
205 181 267 280 162 121 159 143 157 146 129 92 108 139 153 157 165 167 170 160 169 180 194 200 187 190 184 178 181 193 200 187 174 171 178 173 207 186 187 207 199 165 210 208 198 194 189 184 174
287 219 273 280 123 167 122 152 133 148 152 179 147 149 161 167 170 172 178 180 185 210 209 204 186 161 194 187 173 185 225 184 175 192 215 237 255 204 204 237 225 238 244 206 201 203 203 192 178
293 277 284 301 191 172 150 149 181 170 188 177 173 166 167 173 177 180 184 184 187 195 209 209 206 179 155 190 211 249 208 198 202 222 239 271 277 211 202 210 220 237 220 183 174 146 139 162 175
319 319 324 327 329 315 159 192 226 212 163 172 171 167 174 179 182 189 189 193 188 192 201 201 204 199 189 203 217 224 229 221 235 243 233 248 197 195 201 219 229 235 214 200 206 197 192 179 189
303 312 310 309 306 293 254 200 242 117 138 160 164 169 178 184 186 192 194 197 192 195 188 201 208 213 207 205 211 210 222 230 239 257 250 245 256 235 224 211 219 212 213 201 210 215 214 213 219
308 311 307 292 265 260 262 211 108 144 164 165 168 170 180 192 192 195 196 201 196 197 194 203 209 219 224 206 207 205 215 232 248 253 254 253 252 247 249 235 223 218 209 216 229 211 214 199 191
297 313 302 281 276 277 123 266 187 191 169 161 168 174 184 192 199 197 198 200 199 197 198 203 215 222 224 209 213 227 230 220 234 236 251 261 266 259 256 245 227 220 225 222 225 225 220 203 205
283 264 268 279 275 201 143 225 215 207 186 153 185 182 188 192 197 201 200 198 201 203 200 203 218 227 213 206 202 222 228 299 240 242 247 254 253 252 272 248 226 225 221 228 222 219 225 218 215
255 254 263 264 294 182 203 246 156 192 177 196 197 188 188 189 192 199 197 198 201 201 203 205 224 231 221 219 214 232 243 264 227 226 221 242 255 270 276 243 210 210 209 213 214 217 215 214 219
252 261 268 278 291 350 267 255 223 218 210 217 195 188 186 192 191 196 198 196 198 198 199 205 219 225 220 220 221 234 249 269 235 231 224 244 257 278 275 230 205 211 213 213 212 210 216 219 217
252 257 267 278 294 301 299 291 278 280 251 275 189 185 187 181 186 193 195 193 198 196 198 207 221 224 221 227 230 239 246 250 247 237 234 249 270 268 279 232 212 206 213 217 222 218 216 211 213
261 255 274 279 306 314 316 316 303 288 272 270 270 194 187 177 185 192 195 193 198 197 197 204 220 225 224 234 241 239 240 237 223 225 224 249 270 255 278 222 217 205 210 221 221 223 228 233 220
236 244 265 250 273 259 270 274 291 267 259 245 258 188 178 176 185 193 197 193 196 201 201 200 217 221 217 229 234 242 249 245 220 226 238 243 247 271 253 197 187 206 216 225 224 228 236 245 242
229 251 274 296 298 348 302 351 263 282 295 36 85 96 167 170 186 194 205 194 195 198 201 198 210 219 217 225 231 226 201 224 231 230 228 235 235 244 243 220 210 206 217 226 233 233 237 236 236
221 257 255 314 317 305 258 207 270 260 191 149 120 121 152 187 190 210 198 185 186 195 199 197 208 215 219 216 215 219 223 224 224 221 227 212 232 233 230 221 209 205 230 222 224 223 232 243 247
217 137 336 321 320 248 245 229 251 252 181 171 161 141 150 165 165 185 177 176 182 192 196 197 206 219 214 212 218 236 230 231 229 238 235 234 237 233 226 218 212 203 190 226 210 217 224 235 243
228 158 163 213 226 255 284 230 251 234 183 169 174 167 155 141 152 173 173 175 183 187 192 196 205 219 201 198 215 219 213 200 220 235 233 241 239 229 218 215 211 213 205 205 231 241 242 253 246
251 239 212 212 241 281 259 290 319 88 101 26 102 129 119 122 145 161 175 181 182 185 193 200 211 209 189 187 142 207 170 187 214 224 238 242 232 208 202 195 199 194 196 210 241 223 212 221 231
181 194 266 300 197 269 283 290 243 21 124 129 111 114 113 125 137 154 167 175 176 180 194 209 209 193 204 199 168 164 223 210 220 235 231 234 226 204 193 184 193 204 202 233 190 183 204 219 241
237 208 222 158 165 203 256 319 235 87 123 119 121 135 129 134 144 153 160 165 178 185 193 202 195 205 219 200 184 198 216 196 212 231 230 221 209 185 182 185 180 179 166 188 201 201 193 224 247
226 203 182 187 273 218 170 230 284 138 143 132 138 136 141 139 142 148 151 156 169 179 197 199 188 195 187 181 200 217 202 197 209 209 200 192 179 175 177 167 151 158 170 185 192 178 216 216 237